Regional Weather Roundup
Issued by NWS Kansas City/Pleasant Hill, MO

Home | Current Version | Previous Version | Graphics & Text | Print | Product List | Glossary Off
Versions: 1 2 3 4 5 6 7 8 9 10 11 12 13 14 15 16 17 18 19 20 21 22 23 24 25 26 27 28 29 30 31 32 33 34 35 36 37 38 39 40 41 42 43 44 45 46 47 48 49 50

000
ASUS43 KEAX 280604
RWREAX

WEATHER ROUNDUP FOR EASTERN KANSAS AND NORTHWEST MISSOURI
NATIONAL WEATHER SERVICE KANSAS CITY/PLEASANT HILL MO
100 AM CDT TUE APR 28 2015

KSZ040-057-103>105-MOZ028-029-037-043-280700-
...KANSAS CITY METROPOLITAN AREA...

CITY           SKY/WX    TMP DP  RH WIND       PRES   REMARKS
K.C. INTL      PTCLDY    51  36  56 NE5       30.14R
6HR MIN TEMP:  51; 6HR MAX TEMP:  63;

K.C. DOWNTOWN  PTCLDY    54  36  50 NE3       30.13R
6HR MIN TEMP:  53; 6HR MAX TEMP:  64;

LEES SUMMIT    MOCLDY    51  37  58 NE6       30.13R
6HR MIN TEMP:  51; 6HR MAX TEMP:  63;

OLATHE - IXD   MOCLDY    48  37  65 NE6       30.14R
6HR MIN TEMP:  46; 6HR MAX TEMP:  64;

OLATHE - OJC   MOCLDY    52  37  56 NE5       30.12R
6HR MIN TEMP:  52; 6HR MAX TEMP:  64;

LAWRENCE       MOCLDY    45  38  76 CALM      30.14R

$$

MOZ001>008-011>017-020>025-030>033-038>040-044>046-053-054-280700-
...NORTHERN AND CENTRAL MISSOURI...

CITY           SKY/WX    TMP DP  RH WIND       PRES   REMARKS
ST. JOSEPH     PTCLDY    45  38  76 N6        30.15R
6HR MIN TEMP:  45; 6HR MAX TEMP:  65;

MOSBY          PTCLDY    43  41  93 CALM      30.14R
WARRENSBURG    PTCLDY    50  36  57 N3        30.12S
WHITEMAN AFB   NOT AVBL
CLINTON        MOCLDY    48  39  71 NE6       30.11S
SEDALIA        CLEAR     50  36  58 N5        30.13R
6HR MIN TEMP:  50; 6HR MAX TEMP:  63;

WARSAW         NOT AVBL
CHILLICOTHE      N/A     48  39  71 CALM      30.16R
6HR MIN TEMP:  46; 6HR MAX TEMP:  66;

KIRKSVILLE     CLEAR     47  37  68 N5        30.14R
6HR MIN TEMP:  45; 6HR MAX TEMP:  62;


$$

MOZ041-047>049-056>058-063>065-088>090-097-280700-
...EASTERN AND SOUTHERN MISSOURI...

CITY           SKY/WX    TMP DP  RH WIND       PRES   REMARKS
ST. LOUIS INTL CLEAR     51  38  60 E5        30.11R
6HR MIN TEMP:  51; 6HR MAX TEMP:  64;

SPIRIT OF STL  CLEAR     42  40  92 CALM      30.10R
COLUMBIA       CLEAR     49  38  65 NE6       30.11R
JEFFERSON CITY CLEAR     48  38  68 CALM      30.11R
ROLLA          CLEAR     45  36  70 NE5       30.08R
OSAGE BEACH    PTCLDY    46  34  61 CALM      30.10R
SPRINGFIELD    CLOUDY    51  37  58 NE6       30.07R
BRANSON        MOCLDY    54  36  50 CALM      30.06R
JOPLIN         MOCLDY    51  39  63 NE5       30.07F
WEST PLAINS    PTCLDY    50  35  56 NE3       30.06R

$$

IAZ060-094-KSZ022-034>040-054-083-096-NEZ052-066-093-280700-
...KANSAS...SOUTHEAST NEBRASKA AND IOWA...

CITY           SKY/WX    TMP DP  RH WIND       PRES   REMARKS
TOPEKA         MOCLDY    46  40  79 CALM      30.14S
6HR MIN TEMP:  46; 6HR MAX TEMP:  65;

MANHATTAN      PTCLDY    40  37  89 CALM      30.15R
EMPORIA        CLOUDY    49  39  68 N5        30.12R
CHANUTE        CLOUDY    54  39  57 NE7       30.09S
WICHITA        MOCLDY    53  38  56 N7        30.12R
OMAHA          MOCLDY    44  39  82 NW7       30.18R
LINCOLN        PTCLDY    44  36  73 N5        30.20R
FALLS CITY     PTCLDY    50  35  56 N6        30.15S
LAMONI         CLEAR     50  36  58 N3        30.15S
DES MOINES     CLEAR     52  37  56 CALM      30.16S

$$



USA.gov is the U.S. government's official web portal to all federal, state and local government web resources and services.